Location: Sternwarte_Laufen
(47.9344°N, 12.9346°E)
Time: 19:53:32

ISS - Pass Details

Date: 14 March 2018
Orbit: 403 x 406 km, 51.6° (Epoch: 23 March)

Event Time Altitude Azimuth Distance (km) Brightness Sun altitude
Exits shadow 05:19:32 15° 294° (WNW) 1,195 -1.9 -11.6°
Maximum altitude 05:22:10 84° 23° (NNE) 413 -3.8 -11.2°
Drops below altitude 10° 05:25:26 10° 111° (ESE) 1,461 0.0 -10.6°
Sets 05:27:31 0° 112° (ESE) 2,318 1.2 -10.3°
